Tracking 18840 objects as of 19-November-2017
HD Live streaming from Space Station
objects crossing your sky now

FENGYUN 1C DEB

Track FENGYUN 1C DEB now!
10-day predictions


NORAD ID: 35217
Int'l Code: 1999-025DPZ
Perigee: 844.7 km
Apogee: 1,332.2 km
Inclination: 101.9 °
Period: 106.9 minutes
Semi major axis: 7459 km
RCS: 0.0015 m2 (small)
Launch date: May 10, 1999
Source: People's Republic of China (PRC)
Launch site: Taiyaun Space Center, China (TSC)

Note: This is SATELLITE DEBRIS
aabbcc
Your satellite tracking list
Your tracking list is empty




NASA's NSSDC Master Catalog

Two Line Element Set (TLE):
1 35217U 99025DPZ 17319.86854944 +.00000506 +00000-0 +66740-3 0  9999
2 35217 101.8829 344.7117 0326768 199.8035 159.0154 13.47551783214133
Source of the keplerian elements: AFSPC